Weather History for Punta Gorda, FL

Change the Weather History Date:

Saturday, January 26, 2013

  Actual Average Record
Temperature  
Mean Temperature 62 °F -  
Max Temperature 78 °F 71 °F 84 °F (2002)
Min Temperature 46 °F 48 °F 32 °F (2001)
Degree Days  
Heating Degree Days 3    
Growing Degree Days 12 (Base 50)    
Moisture  
Dew Point 48 °F    
Average Humidity 68    
Maximum Humidity 96    
Minimum Humidity 31    
Precipitation  
Precipitation 0.00 in - - ()
Sea Level Pressure  
Sea Level Pressure 30.25 in    
Wind  
Wind Speed 4 mph (North)    
Max Wind Speed 9 mph    
Max Gust Speed -    
Visibility 10 miles    
Events      
Averages and records for this station are not official NWS values.
T = Trace of Precipitation, MM = Missing Value Source: NWS Daily Summary

Daily Weather History Graph

Daily Weather History Graph

Search for Another Location

Airport:

Trip Planner

Search our weather history database for the weather conditions in past years. The results will help you decide how hot, cold, wet, or windy it might be!

Date:

Astronomy

Jan. 26, 2013 Rise Set
Actual Time 7:15 AM EST 6:05 PM EST
Civil Twilight 6:51 AM EST 6:30 PM EST
Nautical Twilight 6:23 AM EST 6:58 PM EST
Astronomical Twilight 5:55 AM EST 7:25 PM EST
Moon 5:54 PM EST (1/26) 6:35 AM EST (1/26)
Length of Visible Light 11h 38m
Length of Day
10h 49m
Full, 100% of the Moon is Illuminated
Jan 26
Full
Jan 26
Full
Feb 3
Last Quarter
Feb 10
New
Feb 17
First Quarter

Hourly Weather History & Observations

Time (EST) Temp. Windchill Dew Point Humidity Pressure Visibility Wind Dir Wind Speed Gust Speed Precip Events Conditions
12:53 AM 48.9 °F - 46.9 °F 93% 30.26 in 10.0 mi Calm Calm - N/A   Clear
1:53 AM 46.9 °F - 45.0 °F 93% 30.26 in 10.0 mi Calm Calm - N/A   Clear
2:53 AM 46.0 °F 43.9 °F 44.1 °F 93% 30.26 in 10.0 mi ENE 4.6 mph - N/A   Clear
3:53 AM 48.9 °F - 46.0 °F 90% 30.25 in 10.0 mi East 3.5 mph - N/A   Clear
4:53 AM 48.0 °F - 45.0 °F 89% 30.25 in 10.0 mi ENE 3.5 mph - N/A   Clear
5:53 AM 50.0 °F - 46.0 °F 86% 30.26 in 9.0 mi NE 4.6 mph - N/A   Clear
6:53 AM 46.0 °F - 43.0 °F 89% 30.27 in 8.0 mi Calm Calm - N/A   Clear
7:53 AM 48.0 °F - 45.0 °F 89% 30.28 in 7.0 mi Calm Calm - N/A   Clear
8:53 AM 59.0 °F - 51.1 °F 75% 30.30 in 10.0 mi NE 3.5 mph - N/A   Clear
9:53 AM 68.0 °F - 48.0 °F 49% 30.31 in 10.0 mi NNE 8.1 mph - N/A   Clear
10:53 AM 73.9 °F - 48.0 °F 40% 30.30 in 10.0 mi North 9.2 mph - N/A   Clear
11:53 AM 75.0 °F - 46.9 °F 37% 30.28 in 10.0 mi North 5.8 mph - N/A   Clear
12:53 PM 77.0 °F - 46.9 °F 34% 30.26 in 10.0 mi North 8.1 mph - N/A   Clear
1:53 PM 77.0 °F - 46.9 °F 34% 30.23 in 10.0 mi NNW 8.1 mph - N/A   Clear
2:53 PM 78.1 °F - 45.0 °F 31% 30.21 in 10.0 mi North 6.9 mph - N/A   Clear
3:53 PM 78.1 °F - 46.0 °F 32% 30.20 in 10.0 mi NNW 6.9 mph - N/A   Clear
4:53 PM 77.0 °F - 45.0 °F 32% 30.20 in 10.0 mi North 4.6 mph - N/A   Clear
5:53 PM 70.0 °F - 50.0 °F 49% 30.21 in 10.0 mi West 6.9 mph - N/A   Clear
6:53 PM 64.9 °F - 53.1 °F 65% 30.22 in 10.0 mi West 5.8 mph - N/A   Clear
7:53 PM 63.0 °F - 55.9 °F 78% 30.24 in 10.0 mi NW 8.1 mph - N/A   Clear
8:53 PM 60.1 °F - 55.0 °F 83% 30.24 in 10.0 mi NNW 8.1 mph - N/A   Clear
9:53 PM 60.1 °F - 55.0 °F 83% 30.25 in 10.0 mi North 5.8 mph - N/A   Clear
10:53 PM 55.9 °F - 54.0 °F 93% 30.27 in 10.0 mi North 3.5 mph - N/A   Clear
11:53 PM 53.1 °F - 52.0 °F 96% 30.27 in 7.0 mi NNE 4.6 mph - N/A   Clear